TimeEST,TemperatureF,Dew PointF,Humidity,Sea Level PressureIn,VisibilityMPH,Wind Direction,Wind SpeedMPH,Gust SpeedMPH,PrecipitationIn,Events,Conditions,WindDirDegrees,DateUTC
12:15 AM,44.6,28.4,53,30.05,10.0,SW,9.2,-,N/A,,Clear,220,2013-01-20 05:15:00
12:35 AM,44.6,28.4,53,30.03,10.0,SSW,11.5,16.1,N/A,,Clear,210,2013-01-20 05:35:00
12:55 AM,44.8,28.4,53,30.02,10.0,SSW,12.7,17.3,N/A,,Clear,200,2013-01-20 05:55:00
1:15 AM,44.8,28.4,53,30.01,10.0,SSW,10.4,17.3,N/A,,Clear,210,2013-01-20 06:15:00
1:35 AM,44.8,28.2,52,30.01,10.0,SW,10.4,-,N/A,,Clear,220,2013-01-20 06:35:00
1:55 AM,44.6,28.4,53,30.00,10.0,SSW,12.7,19.6,N/A,,Clear,210,2013-01-20 06:55:00
2:15 AM,44.2,28.4,54,30.00,10.0,SSW,6.9,-,N/A,,Clear,210,2013-01-20 07:15:00
2:35 AM,44.2,28.4,54,30.00,10.0,SW,9.2,17.3,N/A,,Clear,220,2013-01-20 07:35:00
2:55 AM,43.7,28.4,55,29.99,10.0,SSW,12.7,19.6,N/A,,Clear,210,2013-01-20 07:55:00
3:15 AM,43.7,28.6,55,29.98,10.0,SW,6.9,-,N/A,,Clear,220,2013-01-20 08:15:00
3:35 AM,43.2,28.6,56,29.98,10.0,SW,5.8,-,N/A,,Clear,220,2013-01-20 08:35:00
3:55 AM,42.8,28.4,57,29.97,10.0,WSW,4.6,-,N/A,,Clear,240,2013-01-20 08:55:00
4:15 AM,42.1,28.8,59,29.96,10.0,SSW,6.9,-,N/A,,Clear,210,2013-01-20 09:15:00
4:35 AM,41.9,28.8,60,29.95,10.0,SW,5.8,-,N/A,,Clear,220,2013-01-20 09:35:00
4:55 AM,41.9,28.8,60,29.95,10.0,SSW,6.9,-,N/A,,Clear,210,2013-01-20 09:55:00
5:15 AM,41.9,28.8,60,29.95,10.0,SSW,6.9,-,N/A,,Clear,200,2013-01-20 10:15:00
5:35 AM,41.7,28.8,60,29.95,10.0,SW,5.8,-,N/A,,Clear,220,2013-01-20 10:35:00
5:55 AM,41.2,28.8,61,29.95,10.0,SSW,8.1,-,N/A,,Clear,210,2013-01-20 10:55:00
6:15 AM,41.0,28.4,61,29.94,10.0,SSW,4.6,-,N/A,,Clear,200,2013-01-20 11:15:00
6:35 AM,41.0,28.6,61,29.95,10.0,SSW,3.5,-,N/A,,Clear,210,2013-01-20 11:35:00
7:15 AM,40.1,28.4,63,29.94,10.0,South,3.5,-,N/A,,Clear,190,2013-01-20 12:15:00
7:35 AM,40.1,28.6,63,29.94,10.0,SSW,3.5,-,N/A,,Clear,200,2013-01-20 12:35:00
7:55 AM,40.6,28.6,62,29.94,10.0,SSW,4.6,-,N/A,,Clear,200,2013-01-20 12:55:00
8:15 AM,41.9,28.9,60,29.94,10.0,SSW,5.8,-,N/A,,Clear,200,2013-01-20 13:15:00
8:35 AM,43.2,29.3,58,29.94,10.0,SSW,6.9,-,N/A,,Clear,210,2013-01-20 13:35:00
8:55 AM,44.8,29.5,55,29.95,10.0,SSW,5.8,-,N/A,,Clear,210,2013-01-20 13:55:00
9:35 AM,48.7,30.6,50,29.95,10.0,SSW,9.2,-,N/A,,Clear,210,2013-01-20 14:35:00
9:55 AM,50.5,30.9,47,29.95,10.0,SSW,6.9,-,N/A,,Clear,210,2013-01-20 14:55:00
10:15 AM,52.3,31.3,45,29.95,10.0,SSW,10.4,18.4,N/A,,Clear,210,2013-01-20 15:15:00
10:35 AM,53.2,31.3,43,29.95,10.0,SSW,10.4,16.1,N/A,,Clear,210,2013-01-20 15:35:00
10:55 AM,54.7,31.8,42,29.94,10.0,SW,12.7,19.6,N/A,,Clear,230,2013-01-20 15:55:00
11:15 AM,56.3,32.0,40,29.92,10.0,SW,13.8,19.6,N/A,,Clear,220,2013-01-20 16:15:00
11:35 AM,57.2,31.6,38,29.92,10.0,WSW,12.7,21.9,N/A,,Clear,250,2013-01-20 16:35:00
11:55 AM,57.6,31.6,37,29.91,10.0,SW,13.8,19.6,N/A,,Clear,220,2013-01-20 16:55:00
12:15 PM,58.6,32.0,37,29.90,10.0,West,8.1,23.0,N/A,,Clear,260,2013-01-20 17:15:00
12:35 PM,59.2,32.0,36,29.89,10.0,West,12.7,21.9,N/A,,Clear,260,2013-01-20 17:35:00
12:55 PM,59.9,32.0,35,29.89,10.0,SW,13.8,21.9,N/A,,Clear,230,2013-01-20 17:55:00
1:15 PM,61.3,31.3,32,29.88,10.0,WSW,13.8,21.9,N/A,,Clear,250,2013-01-20 18:15:00
1:35 PM,62.8,30.4,30,29.89,10.0,West,10.4,16.1,N/A,,Clear,280,2013-01-20 18:35:00
1:55 PM,63.0,29.7,29,29.88,10.0,West,8.1,19.6,N/A,,Clear,260,2013-01-20 18:55:00
2:15 PM,63.0,28.8,28,29.89,10.0,WSW,12.7,17.3,N/A,,Clear,250,2013-01-20 19:15:00
2:35 PM,63.3,29.1,28,29.89,10.0,WSW,5.8,-,N/A,,Clear,250,2013-01-20 19:35:00
2:55 PM,63.3,25.3,24,29.90,10.0,WNW,9.2,16.1,N/A,,Clear,300,2013-01-20 19:55:00
3:15 PM,61.9,24.8,24,29.91,10.0,NW,15.0,24.2,N/A,,Clear,310,2013-01-20 20:15:00
3:35 PM,61.2,23.7,24,29.92,10.0,NW,17.3,25.3,N/A,,Clear,310,2013-01-20 20:35:00
3:55 PM,60.3,23.9,25,29.93,10.0,NW,11.5,19.6,N/A,,Clear,310,2013-01-20 20:55:00
4:15 PM,59.4,22.8,25,29.94,10.0,WNW,12.7,19.6,N/A,,Clear,290,2013-01-20 21:15:00
4:35 PM,58.1,22.3,25,29.95,10.0,WNW,16.1,21.9,N/A,,Clear,300,2013-01-20 21:35:00
4:55 PM,57.4,20.7,24,29.96,10.0,WNW,15.0,21.9,N/A,,Clear,290,2013-01-20 21:55:00
5:15 PM,55.8,20.7,26,29.97,10.0,WNW,10.4,18.4,N/A,,Clear,300,2013-01-20 22:15:00
5:35 PM,53.2,21.9,29,29.99,10.0,NNW,17.3,-,N/A,,Clear,340,2013-01-20 22:35:00
5:55 PM,50.0,19.6,30,30.01,10.0,NNW,11.5,-,N/A,,Clear,340,2013-01-20 22:55:00
6:15 PM,48.0,17.2,29,30.02,10.0,NNW,9.2,-,N/A,,Clear,330,2013-01-20 23:15:00
6:35 PM,48.6,14.0,25,30.03,10.0,North,4.6,-,N/A,,Clear,360,2013-01-20 23:35:00
6:55 PM,46.4,13.5,27,30.04,10.0,North,8.1,-,N/A,,Clear,350,2013-01-20 23:55:00
7:15 PM,46.0,10.8,24,30.05,10.0,Calm,Calm,-,N/A,,Clear,0,2013-01-21 00:15:00
7:35 PM,45.1,11.3,25,30.06,10.0,North,5.8,-,N/A,,Clear,360,2013-01-21 00:35:00
7:55 PM,44.4,12.2,27,30.07,10.0,North,6.9,-,N/A,,Clear,350,2013-01-21 00:55:00
8:15 PM,42.8,12.0,29,30.07,10.0,NNW,5.8,-,N/A,,Clear,340,2013-01-21 01:15:00
8:35 PM,40.8,12.4,31,30.08,10.0,NNW,3.5,-,N/A,,Clear,340,2013-01-21 01:35:00
8:55 PM,38.5,14.2,37,30.09,10.0,Calm,Calm,-,N/A,,Clear,0,2013-01-21 01:55:00
9:15 PM,36.3,16.7,45,30.09,10.0,Calm,Calm,-,N/A,,Clear,0,2013-01-21 02:15:00
9:35 PM,35.2,17.1,48,30.10,10.0,Calm,Calm,-,N/A,,Clear,0,2013-01-21 02:35:00
9:55 PM,35.1,17.8,49,30.10,10.0,Calm,Calm,-,N/A,,Clear,0,2013-01-21 02:55:00
10:15 PM,31.5,18.7,59,30.10,10.0,North,6.9,-,N/A,,Clear,10,2013-01-21 03:15:00
10:35 PM,30.9,18.3,60,30.11,10.0,Calm,Calm,-,N/A,,Clear,0,2013-01-21 03:35:00
10:55 PM,33.1,19.0,56,30.12,10.0,Calm,Calm,-,N/A,,Clear,0,2013-01-21 03:55:00
11:15 PM,32.0,21.4,65,30.11,10.0,North,4.6,-,N/A,,Clear,10,2013-01-21 04:15:00
11:35 PM,33.6,19.8,57,30.11,10.0,North,6.9,-,N/A,,Clear,360,2013-01-21 04:35:00
11:55 PM,38.3,12.0,34,30.11,10.0,North,6.9,-,N/A,,Clear,10,2013-01-21 04:55:00